TimeCDT,TemperatureF,Dew PointF,Humidity,Sea Level PressureIn,VisibilityMPH,Wind Direction,Wind SpeedMPH,Gust SpeedMPH,PrecipitationIn,Events,Conditions,WindDirDegrees,DateUTC
12:15 AM,66.2,59.0,78,30.19,10.0,Calm,Calm,-,N/A,,Clear,0,2013-09-06 05:15:00
12:35 AM,66.2,59.0,78,30.19,10.0,Calm,Calm,-,N/A,,Clear,0,2013-09-06 05:35:00
12:55 AM,66.2,59.0,78,30.19,10.0,Calm,Calm,-,N/A,,Clear,0,2013-09-06 05:55:00
1:15 AM,66.2,59.0,78,30.19,10.0,Calm,Calm,-,N/A,,Clear,0,2013-09-06 06:15:00
1:35 AM,66.2,59.0,78,30.18,10.0,Calm,Calm,-,N/A,,Clear,0,2013-09-06 06:35:00
1:55 AM,68.0,59.0,73,30.18,10.0,Calm,Calm,-,N/A,,Partly Cloudy,0,2013-09-06 06:55:00
2:15 AM,66.2,59.0,78,30.17,10.0,Calm,Calm,-,N/A,,Clear,0,2013-09-06 07:15:00
2:35 AM,68.0,59.0,73,30.16,10.0,SSE,5.8,-,N/A,,Clear,150,2013-09-06 07:35:00
2:55 AM,66.2,59.0,78,30.17,10.0,Calm,Calm,-,N/A,,Clear,0,2013-09-06 07:55:00
3:15 AM,64.4,59.0,83,30.17,10.0,Calm,Calm,-,N/A,,Clear,0,2013-09-06 08:15:00
3:35 AM,64.4,59.0,83,30.16,10.0,Calm,Calm,-,N/A,,Clear,0,2013-09-06 08:35:00
3:55 AM,64.4,59.0,83,30.16,10.0,Calm,Calm,-,N/A,,Clear,0,2013-09-06 08:55:00
4:15 AM,62.6,59.0,88,30.16,10.0,Calm,Calm,-,N/A,,Clear,0,2013-09-06 09:15:00
4:35 AM,62.6,59.0,88,30.15,10.0,Calm,Calm,-,N/A,,Clear,0,2013-09-06 09:35:00
4:55 AM,62.6,59.0,88,30.16,10.0,Calm,Calm,-,N/A,,Clear,0,2013-09-06 09:55:00
5:15 AM,60.8,57.2,88,30.16,10.0,Calm,Calm,-,N/A,,Clear,0,2013-09-06 10:15:00
5:35 AM,62.6,59.0,88,30.16,10.0,Calm,Calm,-,N/A,,Clear,0,2013-09-06 10:35:00
5:55 AM,60.8,57.2,88,30.17,10.0,Calm,Calm,-,N/A,,Clear,0,2013-09-06 10:55:00
6:15 AM,60.8,59.0,94,30.17,10.0,Calm,Calm,-,N/A,,Clear,0,2013-09-06 11:15:00
6:35 AM,59.0,59.0,100,30.17,10.0,Calm,Calm,-,N/A,,Clear,0,2013-09-06 11:35:00
6:45 AM,62.6,59.0,88,30.17,10.0,Calm,Calm,-,N/A,,Scattered Clouds,0,2013-09-06 11:45:00
7:45 AM,64.4,62.6,94,30.19,7.0,Calm,Calm,-,N/A,,Scattered Clouds,0,2013-09-06 12:45:00
8:55 AM,66.2,62.6,88,30.20,10.0,Calm,Calm,-,N/A,,Mostly Cloudy,0,2013-09-06 13:55:00
9:45 AM,69.8,62.6,78,30.20,10.0,Calm,Calm,-,N/A,,Scattered Clouds,0,2013-09-06 14:45:00
10:49 AM,77.0,60.8,57,30.20,10.0,ESE,5.8,-,N/A,,Scattered Clouds,110,2013-09-06 15:49:00
11:45 AM,78.8,57.2,47,30.20,10.0,ESE,4.6,-,N/A,,Partly Cloudy,120,2013-09-06 16:45:00
12:48 PM,82.4,59.0,45,30.18,10.0,SSE,5.8,-,N/A,,Partly Cloudy,160,2013-09-06 17:48:00
1:45 PM,82.4,57.2,42,30.16,10.0,South,6.9,-,N/A,,Partly Cloudy,180,2013-09-06 18:45:00
2:45 PM,84.2,59.0,42,30.14,10.0,South,5.8,-,N/A,,Partly Cloudy,180,2013-09-06 19:45:00
3:45 PM,84.2,59.0,42,30.11,10.0,South,5.8,-,N/A,,Partly Cloudy,180,2013-09-06 20:45:00
4:48 PM,86.0,57.2,37,30.10,10.0,ESE,4.6,-,N/A,,Partly Cloudy,120,2013-09-06 21:48:00
5:45 PM,84.2,59.0,42,30.09,10.0,ESE,5.8,-,N/A,,Partly Cloudy,120,2013-09-06 22:45:00
6:55 PM,80.6,62.6,54,30.08,10.0,ESE,6.9,-,N/A,,Partly Cloudy,120,2013-09-06 23:55:00
7:45 PM,77.0,62.6,61,30.08,10.0,ESE,4.6,-,N/A,,Partly Cloudy,120,2013-09-07 00:45:00
8:45 PM,73.4,62.6,69,30.08,10.0,ESE,4.6,-,N/A,,Partly Cloudy,120,2013-09-07 01:45:00
9:15 PM,75.2,60.8,61,30.08,10.0,SE,5.8,-,N/A,,Clear,140,2013-09-07 02:15:00
9:35 PM,73.4,60.8,65,30.08,10.0,SE,5.8,-,N/A,,Clear,140,2013-09-07 02:35:00
9:55 PM,73.4,60.8,65,30.08,10.0,SE,6.9,-,N/A,,Partly Cloudy,140,2013-09-07 02:55:00
10:15 PM,73.4,60.8,65,30.08,10.0,Calm,Calm,-,N/A,,Partly Cloudy,0,2013-09-07 03:15:00
10:35 PM,73.4,60.8,65,30.08,10.0,Calm,Calm,-,N/A,,Partly Cloudy,0,2013-09-07 03:35:00
10:55 PM,73.4,60.8,65,30.08,10.0,SE,8.1,-,N/A,,Scattered Clouds,140,2013-09-07 03:55:00
11:15 PM,73.4,62.6,69,30.08,10.0,SE,8.1,-,N/A,,Scattered Clouds,140,2013-09-07 04:15:00
11:35 PM,73.4,62.6,69,30.08,10.0,SE,6.9,-,N/A,,Partly Cloudy,140,2013-09-07 04:35:00
11:55 PM,71.6,62.6,73,30.08,10.0,SE,8.1,-,N/A,,Partly Cloudy,140,2013-09-07 04:55:00